Location: Rimrock Meadows
(47.4808°N, 119.7286°W)
Time: 05:50:32
(UTC-07:00)

Daily predictions for brighter satellites

Satellite Brightness Start Highest point End
(mag) Time Altitude Azimuth Time Altitude Azimuth Time Altitude Azimuth
Lacrosse 5 4.5 03:22:27 16° ENE 03:22:27 16° ENE 03:23:32 10° NE
CENTAUR R/B 4.0 03:24:36 33° NNE 03:24:36 33° NNE 03:28:59 10° NE
CZ-4C R/B 3.6 03:25:40 48° ENE 03:25:40 48° ENE 03:31:56 10° ESE
Cosmos 1943 Rocket 4.2 03:29:28 23° E 03:29:28 23° E 03:32:40 10° NE
ADEOS II 4.2 03:29:27 10° NE 03:33:24 21° E 03:33:24 21° E
ATLAS 3B R/B 4.5 03:34:39 21° N 03:34:59 21° N 03:39:58 10° NE
Cosmos 2369 Rocket 2.9 04:10:48 49° NE 04:10:48 49° NE 04:14:54 10° NNE
Cosmos 2184 Rocket 3.9 04:28:52 10° N 04:34:29 71° NNW 04:34:29 71° NNW
Resurs 1-4 Rocket 4.1 04:33:04 10° N 04:34:26 16° NNW 04:34:26 16° NNW
USA 215 3.5 04:38:08 10° NE 04:44:27 53° NNW 04:45:29 48° NW
Cosmos 1825 Rocket 4.1 04:49:26 52° SE 04:50:02 57° E 04:54:25 10° NNE
SJ 16-02 4.3 04:49:06 10° SE 04:51:40 15° E 04:54:14 10° ENE
PSLV R/B 3.9 04:48:44 10° NNE 04:53:00 63° ESE 04:53:12 62° ESE
Cosmos 1656 Rocket 4.4 04:51:02 24° S 04:54:20 53° ESE 04:59:50 10° NE
CZ-2D R/B 4.2 04:56:26 10° NNW 04:57:34 14° NNW 04:57:34 14° NNW
Lacrosse 5 2.6 05:01:40 38° NNW 05:01:46 38° NNW 05:06:31 10° NE
Tiangong 2 3.9 05:05:12 12° SE 05:05:12 12° SE 05:05:38 10° SE
USA 229 DEB 3.7 05:00:36 36° SSW 05:03:40 78° SE 05:10:39 10° NE
USA 229 3.7 05:00:40 35° SSW 05:03:46 77° SE 05:10:44 10° NE
CZ-4B R/B 3.7 05:04:34 10° NNE 05:09:57 60° ESE 05:15:25 10° S
Cosmos 1943 Rocket 2.2 05:11:02 54° W 05:11:36 57° WNW 05:17:07 10° NNE
CZ-4C R/B 3.0 05:10:58 39° WNW 05:13:04 49° WSW 05:20:37 10° S
ADEOS II 2.1 05:08:21 10° N 05:13:32 59° WNW 05:14:20 53° WSW
CENTAUR R/B 4.2 05:11:47 19° NW 05:14:39 24° N 05:20:37 10° NE
Nadezhda 1 Rocket 3.9 05:12:06 25° SSW 05:16:00 66° WNW 05:22:21 10° N
USA 267 4.1 05:12:16 10° S 05:16:50 28° SW 05:16:50 28° SW
Milstar 3 4.5 05:16:48 14° SSW 05:18:35 15° S 05:22:30 10° SSE
Meteor PRIRODA 4.5 05:15:43 10° NNE 05:19:24 52° E 05:23:04 10° S
Okean O Rocket 1.5 05:15:25 10° NNE 05:19:50 88° ESE 05:22:26 25° SSW
PSLV R/B 4.5 05:18:05 10° N 05:20:36 38° NNW 05:20:36 38° NNW
ATLAS 3B R/B 4.3 05:22:33 10° NW 05:28:09 25° NNE 05:33:34 10° ENE
Cosmos 2150 Rocket 4.0 05:27:11 37° SW 05:29:06 61° WNW 05:34:25 10° NNE
Cosmos 1898 Rocket 3.9 05:30:29 38° WNW 05:31:02 39° WNW 05:35:55 10° N
CZ-2C R/B 3.8 05:26:34 10° SSE 05:31:20 83° ENE 05:36:04 10° NNW
IRS-1C Rocket 4.2 05:26:47 10° NNE 05:32:06 80° ESE 05:37:22 10° SSW
Cosmos 1937 Rocket 3.7 05:31:03 38° WSW 05:32:40 51° WNW 05:37:52 10° NNE
Okean-O 4.5 05:29:22 10° NNE 05:33:23 32° E 05:37:21 10° SSE
Cosmos-2242 2.9 05:29:10 10° N 05:33:28 87° W 05:37:47 10° S
Cosmos 1758 Rocket 3.5 05:32:45 22° SSW 05:35:34 65° WNW 05:40:05 10° N
ERBS 2.2 05:38:40 55° NW 05:39:22 88° SSW 05:42:50 10° SE
Cosmos 1125 Rocket 4.1 05:36:37 10° S 05:41:45 59° ESE 05:46:58 10° NNE
Cosmos 2366 rocket 4.4 05:37:08 10° N 05:43:15 66° ENE 05:49:23 10° SSE
Cosmos 2154 Rocket 4.2 05:38:31 10° NNW 05:44:31 45° W 05:50:27 10° SSW
Meteor 1-24 Rocket 4.4 05:42:32 10° S 05:48:28 63° E 05:54:19 10° NNE
Meteor 1-31 Rocket 2.6 05:46:19 10° N 05:50:09 80° WNW 05:53:57 10° SSW
Cosmos 2227 Rocket 2.9 05:46:26 10° NNW 05:52:02 55° ENE 05:57:36 10° SE
COSMO-SKYMED 1 3.1 05:49:04 10° SSE 05:53:21 62° ENE 05:57:39 10° N
Cosmos 2369 Rocket 3.4 05:52:37 21° WNW 05:53:54 22° NW 05:58:18 10° N
MTI 3.6 05:50:42 10° SSE 05:53:57 82° WSW 05:57:14 10° NNW
Cosmos 1340 Rocket 3.7 05:53:57 29° WNW 05:53:59 29° WNW 05:57:36 10° N
SL-8 Rocket 3.9 05:50:42 10° NNW 05:57:01 77° W 06:03:19 10° S
CZ-4B R/B 3.9 05:56:21 10° NNW 05:58:44 23° NW 05:58:44 23° NW
Cosmos 1707 3.4 06:01:41 23° WSW 06:03:23 32° WNW 06:06:58 10° N
Cosmos 2221 4.0 06:01:11 10° N 06:05:21 40° ENE 06:09:29 10° SE
Cosmos 1842 Rocket 3.6 06:01:01 10° N 06:05:25 85° E 06:09:46 10° S
Cosmos 1048 Rocket 4.0 06:03:29 10° NNW 06:08:34 57° WSW 06:13:40 10° S
SJ-6F 4.3 06:05:22 10° N 06:09:26 63° WNW 06:13:27 10° SSW
Cosmos 1378 4.1 06:11:20 19° WSW 06:13:01 26° WNW 06:16:14 10° NNW
Cosmos 864 Rocket 4.4 06:07:23 10° N 06:13:38 80° W 06:19:46 10° S
Cosmos 2219 3.6 06:12:40 10° NW 06:17:57 41° WSW 06:23:11 10° S
Cosmos 1908 3.7 06:15:02 10° N 06:18:52 65° ENE 06:22:41 10° SSE
CZ-2C R/B 3.8 06:15:23 10° NNE 06:20:05 43° E 06:24:53 10° S
Cosmos 2218 Rocket 4.0 06:15:53 10° NNW 06:21:59 60° W 06:28:09 10° S
EO 1 Del DPAF 3.6 06:21:38 10° S 06:25:17 43° W 06:28:58 10° NNW
USA 215 4.1 06:20:48 10° ENE 06:26:45 39° N 06:32:41 10° WNW
USA 40 PKM 4.4 06:23:35 10° NW 06:27:06 67° NE 06:30:39 10° ESE
Meteor 2-5 Rocket 4.1 06:21:59 10° SW 06:27:37 45° WNW 06:33:11 10° N
SJ 16-02 1.4 06:25:25 10° SSW 06:29:45 60° WNW 06:34:08 10° NNE
Cosmos 2297 Rocket 2.3 06:24:20 10° NNW 06:30:01 85° ENE 06:35:41 10° SSE
Meteor 2-1 Rocket 4.4 06:27:35 10° NNW 06:33:27 62° W 06:39:12 10° S
Meteor 2-8 Rocket 4.5 06:28:49 10° S 06:34:58 89° W 06:41:08 10° N
USA 81 4.4 06:30:49 10° SSW 06:35:48 42° WNW 06:40:49 10° N
Cosmos 2082 3.7 06:31:19 10° NNW 06:37:02 88° WSW 06:42:41 10° SSE
ATLAS CENTAUR R/B 3.5 06:36:40 10° NNW 06:39:27 19° NE 06:42:17 10° E
SKYMED 2 3.9 06:37:20 10° S 06:41:27 42° W 06:45:37 10° NNW
In-Cosmos 22 4.3 06:38:54 10° SSW 06:44:26 57° WNW 06:50:06 10° N
BREEZE-M DEB (TANK) 4.1 06:40:53 10° WSW 06:45:15 87° NNW 07:03:51 10° ENE
Lacrosse 5 3.3 06:41:29 10° WNW 06:45:50 28° N 06:50:12 10° ENE
Cosmos 1356 4.1 06:42:50 10° SW 06:46:04 35° WNW 06:49:18 10° N
Nadezhda 3 Rocket 4.3 06:41:09 10° S 06:47:29 79° E 06:53:46 10° N
CZ-4B R/B 4.2 06:45:52 10° N 06:50:09 24° WNW 06:54:28 10° WSW
ADEOS II 4.0 06:51:04 10° NW 06:52:11 11° NW 06:53:19 10° WNW
Cosmos 1076 Rocket 4.1 06:47:57 10° S 06:52:15 64° E 06:56:34 10° NNE
Cosmos 1300 3.8 06:48:34 10° N 06:52:19 49° ENE 06:56:02 10° SSE
NOSS 3-1 (C) 3.8 06:47:29 10° WSW 06:53:14 50° NW 06:59:48 10° NE
USA 229 DEB 4.5 06:49:05 10° W 06:55:17 35° NNW 07:01:40 10° NE
USA 229 4.5 06:49:09 10° W 06:55:22 35° NNW 07:01:45 10° NE
